When you browse on this site, cookies collect data to enhance your experience and personalize the content and advertising you see.
Visit our Privacy Policy to learn more. By continuing to use the site, you agree to this use of cookies and data.
  • In Lithuania
  • List of Countries
  • For 7 days
  • Water Temperature
  • Weather Map
  • Weather Widgets
  • user-avatar
    Login

    Hourly Weather Andora

    Today, 10 April, Friday

    Time Temperature Precipitation Wind Pressure Humidity
    00:00 +4°C° 0 mm 1 mps 625 mmHg 92%
    01:00 +4°C° 0 mm 1 mps 625 mmHg 92%
    02:00 +4°C° 0 mm 1 mps 625 mmHg 92%
    03:00 +4°C° 0 mm 1 mps 624 mmHg 92%
    04:00 +4°C° 0 mm 1 mps 624 mmHg 90%
    05:00 +4°C° 0 mm 1 mps 625 mmHg 89%
    06:00 +4°C° 0 mm 1 mps 625 mmHg 87%
    07:00 +7°C° 0 mm 1 mps 626 mmHg 79%
    08:00 +9°C° 0 mm 1 mps 627 mmHg 71%
    09:00 +11°C° 0 mm 1 mps 628 mmHg 63%
    10:00 +11°C° 0.1 mm 1 mps 628 mmHg 61%
    11:00 +12°C° 0.1 mm 1 mps 628 mmHg 59%
    12:00 +12°C° 0 mm 2 mps 628 mmHg 57%
    13:00 +12°C° 0.3 mm 2 mps 628 mmHg 58%
    14:00 +12°C° 0.3 mm 2 mps 627 mmHg 60%
    15:00 +12°C° 0.3 mm 2 mps 627 mmHg 61%
    16:00 +10°C° 0.2 mm 2 mps 627 mmHg 68%
    17:00 +9°C° 0.2 mm 1 mps 626 mmHg 75%
    18:00 +8°C° 0.2 mm 1 mps 626 mmHg 82%
    19:00 +7°C° 0 mm 1 mps 626 mmHg 86%
    20:00 +6°C° 0 mm 1 mps 626 mmHg 90%
    21:00 +6°C° 0 mm 1 mps 626 mmHg 93%
    22:00 +5°C° 0 mm 1 mps 626 mmHg 93%
    23:00 +5°C° 0 mm 1 mps 626 mmHg 93%

    Tomorrow, 11 April, Saturday

    Time Temperature Precipitation Wind Pressure Humidity
    00:00 +5°C° 0 mm 1 mps 625 mmHg 93%
    01:00 +5°C° 0 mm 1 mps 625 mmHg 92%
    02:00 +4°C° 0 mm 1 mps 625 mmHg 92%
    03:00 +4°C° 0 mm 1 mps 625 mmHg 92%
    04:00 +4°C° 0 mm 1 mps 625 mmHg 91%
    05:00 +4°C° 0 mm 1 mps 625 mmHg 91%
    06:00 +4°C° 0 mm 1 mps 625 mmHg 91%
    07:00 +6°C° 0 mm 1 mps 626 mmHg 82%
    08:00 +8°C° 0 mm 1 mps 627 mmHg 73%
    09:00 +11°C° 0 mm 1 mps 628 mmHg 65%
    10:00 +11°C° 0.1 mm 1 mps 628 mmHg 63%
    11:00 +12°C° 0.1 mm 2 mps 628 mmHg 61%
    12:00 +12°C° 0.1 mm 2 mps 628 mmHg 59%
    13:00 +12°C° 0.3 mm 2 mps 628 mmHg 64%
    14:00 +10°C° 0.3 mm 2 mps 627 mmHg 68%
    15:00 +10°C° 0.3 mm 2 mps 627 mmHg 73%
    16:00 +10°C° 0.3 mm 1 mps 626 mmHg 78%
    17:00 +9°C° 0.3 mm 1 mps 626 mmHg 83%
    18:00 +8°C° 0.3 mm 1 mps 626 mmHg 88%
    19:00 +7°C° 0 mm 1 mps 625 mmHg 90%
    20:00 +6°C° 0 mm 1 mps 625 mmHg 93%
    21:00 +5°C° 0 mm 1 mps 625 mmHg 95%
    22:00 +5°C° 0 mm 1 mps 626 mmHg 95%
    23:00 +6°C° 0 mm 1 mps 626 mmHg 95%

    Day after tomorrow, 12 April, Sunday

    Time Temperature Precipitation Wind Pressure Humidity
    00:00 +6°C° 0 mm 1 mps 626 mmHg 95%
    01:00 +6°C° 0 mm 1 mps 625 mmHg 95%
    02:00 +5°C° 0 mm 1 mps 625 mmHg 95%
    03:00 +5°C° 0 mm 1 mps 624 mmHg 95%
    04:00 +5°C° 0 mm 1 mps 624 mmHg 94%
    05:00 +5°C° 0 mm 1 mps 624 mmHg 93%
    06:00 +5°C° 0 mm 1 mps 624 mmHg 93%
    07:00 +6°C° 0.1 mm 1 mps 624 mmHg 90%
    08:00 +6°C° 0.1 mm 1 mps 625 mmHg 88%
    09:00 +7°C° 0.1 mm 1 mps 625 mmHg 85%
    10:00 +7°C° 0.6 mm 1 mps 624 mmHg 85%
    11:00 +6°C° 0.6 mm 1 mps 624 mmHg 86%
    12:00 +6°C° 0.6 mm 1 mps 623 mmHg 86%
    13:00 +6°C° 0.4 mm 1 mps 623 mmHg 87%
    14:00 +6°C° 0.4 mm 1 mps 622 mmHg 88%
    15:00 +5°C° 0.4 mm 1 mps 622 mmHg 90%
    16:00 +5°C° 0.2 mm 1 mps 621 mmHg 90%
    17:00 +5°C° 0.2 mm 1 mps 621 mmHg 91%
    18:00 +5°C° 0.2 mm 1 mps 621 mmHg 92%
    19:00 +5°C° 0 mm 1 mps 620 mmHg 92%
    20:00 +4°C° 0 mm 1 mps 620 mmHg 93%
    21:00 +4°C° 0 mm 1 mps 620 mmHg 93%
    22:00 +3°C° 0 mm 1 mps 620 mmHg 93%
    23:00 +3°C° 0 mm 1 mps 619 mmHg 93%

    13 April, Monday

    Time Temperature Precipitation Wind Pressure Humidity
    00:00 +3°C° 0 mm 1 mps 619 mmHg 93%
    01:00 +3°C° 0 mm 1 mps 618 mmHg 93%
    02:00 +2°C° 0 mm 1 mps 618 mmHg 93%
    03:00 +2°C° 0 mm 1 mps 618 mmHg 93%
    04:00 +2°C° 0 mm 1 mps 617 mmHg 92%
    05:00 +3°C° 0 mm 1 mps 617 mmHg 91%
    06:00 +3°C° 0 mm 1 mps 617 mmHg 89%
    07:00 +5°C° 0 mm 1 mps 618 mmHg 83%
    08:00 +7°C° 0 mm 1 mps 619 mmHg 76%
    09:00 +9°C° 0 mm 1 mps 620 mmHg 70%
    10:00 +10°C° 0.1 mm 1 mps 620 mmHg 66%
    11:00 +10°C° 0.1 mm 2 mps 620 mmHg 62%
    12:00 +10°C° 0.1 mm 2 mps 620 mmHg 58%
    13:00 +11°C° 0.2 mm 1 mps 620 mmHg 60%
    14:00 +11°C° 0.2 mm 1 mps 619 mmHg 61%
    15:00 +10°C° 0.2 mm 1 mps 619 mmHg 63%
    16:00 +9°C° 0.2 mm 1 mps 618 mmHg 70%
    17:00 +8°C° 0.2 mm 1 mps 618 mmHg 76%
    18:00 +7°C° 0.2 mm 1 mps 617 mmHg 83%
    19:00 +7°C° 0.4 mm 1 mps 618 mmHg 86%
    20:00 +6°C° 0.4 mm 1 mps 618 mmHg 89%
    21:00 +6°C° 0.4 mm 1 mps 618 mmHg 92%
    22:00 +6°C° 0.7 mm 1 mps 618 mmHg 92%
    23:00 +6°C° 0.7 mm 1 mps 618 mmHg 93%

    14 April, Tuesday

    Time Temperature Precipitation Wind Pressure Humidity
    00:00 +5°C° 0.7 mm 1 mps 618 mmHg 93%
    01:00 +5°C° 0.6 mm 1 mps 618 mmHg 93%
    02:00 +5°C° 0.6 mm 1 mps 617 mmHg 94%
    03:00 +5°C° 0.6 mm 1 mps 617 mmHg 94%
    04:00 +5°C° 0.2 mm 1 mps 617 mmHg 93%
    05:00 +5°C° 0.2 mm 1 mps 618 mmHg 93%
    06:00 +5°C° 0.2 mm 1 mps 618 mmHg 93%
    07:00 +6°C° 0 mm 1 mps 618 mmHg 90%
    08:00 +7°C° 0 mm 1 mps 619 mmHg 87%
    09:00 +8°C° 0 mm 1 mps 619 mmHg 84%
    10:00 +9°C° 0.1 mm 1 mps 620 mmHg 80%
    11:00 +10°C° 0.1 mm 1 mps 620 mmHg 76%
    12:00 +12°C° 0.1 mm 1 mps 621 mmHg 73%
    13:00 +10°C° 0.5 mm 2 mps 620 mmHg 74%
    14:00 +10°C° 0.5 mm 2 mps 620 mmHg 75%
    15:00 +10°C° 0.5 mm 2 mps 619 mmHg 76%
    16:00 +10°C° 0.5 mm 1 mps 619 mmHg 82%
    17:00 +9°C° 0.5 mm 1 mps 619 mmHg 87%
    18:00 +9°C° 0.5 mm 1 mps 618 mmHg 92%
    19:00 +8°C° 0.1 mm 1 mps 618 mmHg 94%
    20:00 +7°C° 0.1 mm 1 mps 618 mmHg 95%
    21:00 +6°C° 0.1 mm 2 mps 618 mmHg 96%
    22:00 +6°C° 0 mm 2 mps 618 mmHg 96%
    23:00 +5°C° 0 mm 2 mps 618 mmHg 96%

    15 April, Wednesday

    Time Temperature Precipitation Wind Pressure Humidity
    00:00 +5°C° 0 mm 2 mps 617 mmHg 96%
    01:00 +5°C° 0 mm 2 mps 617 mmHg 95%
    02:00 +5°C° 0 mm 2 mps 617 mmHg 95%
    03:00 +5°C° 0 mm 2 mps 616 mmHg 95%
    04:00 +5°C° 0.4 mm 2 mps 616 mmHg 95%
    05:00 +5°C° 0.4 mm 2 mps 616 mmHg 96%
    06:00 +5°C° 0.4 mm 2 mps 616 mmHg 96%
    07:00 +5°C° 0.9 mm 2 mps 617 mmHg 94%
    08:00 +6°C° 0.9 mm 2 mps 617 mmHg 93%
    09:00 +5°C° 0.9 mm 3 mps 617 mmHg 91%
    10:00 +5°C° 0.9 mm 3 mps 617 mmHg 90%
    11:00 +5°C° 0.9 mm 3 mps 617 mmHg 90%
    12:00 +7°C° 0.9 mm 3 mps 617 mmHg 89%
    13:00 +5°C° 1.3 mm 3 mps 617 mmHg 90%
    14:00 +5°C° 1.3 mm 3 mps 617 mmHg 91%
    15:00 +5°C° 1.3 mm 3 mps 617 mmHg 92%
    16:00 +4°C° 1.1 mm 3 mps 617 mmHg 92%
    17:00 +4°C° 1.1 mm 3 mps 617 mmHg 91%
    18:00 +4°C° 1.1 mm 2 mps 617 mmHg 91%
    19:00 +4°C° 0 mm 2 mps 617 mmHg 91%
    20:00 +3°C° 0 mm 2 mps 618 mmHg 90%
    21:00 +2°C° 0 mm 2 mps 618 mmHg 90%
    22:00 +2°C° 0 mm 2 mps 618 mmHg 90%
    23:00 +2°C° 0 mm 3 mps 619 mmHg 91%
    Show more